Punta Cana, Dominican Republic

11:54 PM AST on May 29, 2017 (GMT -0400)
Punta Cana International

Weather History for MDPC - March, 2013

Change the Weather History Date:

Sunday, March 10, 2013

  Actual Average Record
Temperature  
Mean Temperature 76 °F -  
Max Temperature 81 °F 82 °F 87 °F (2003)
Min Temperature 70 °F 73 °F 68 °F (2014)
Cooling Degree Days 10    
Growing Degree Days 26 (Base 50)    
Moisture  
Dew Point 62 °F    
Average Humidity 62    
Maximum Humidity 69    
Minimum Humidity 48    
Precipitation  
Precipitation 0.00 in - - ()
Sea Level Pressure  
Sea Level Pressure 30.00 in    
Wind  
Wind Speed 9 mph ()    
Max Wind Speed 14 mph    
Max Gust Speed -    
Visibility 6.8 miles    
Events      
Averages and records for this station are not official NWS values.
T = Trace of Precipitation, MM = Missing Value Source: Averaged Metar Reports

Daily Weather History Graph

Daily Weather History Graph

Search for Another Location

Airport or City:

Trip Planner

Search our weather history database for the weather conditions in past years. The results will help you decide how hot, cold, wet, or windy it might be!

Date:

Astronomy

Mar. 10, 2013 Rise Set
Actual Time 6:45 AM AST 6:42 PM AST
Civil Twilight 6:23 AM AST 7:03 PM AST
Nautical Twilight 5:58 AM AST 7:29 PM AST
Astronomical Twilight 5:33 AM AST 7:54 PM AST
Moon 5:37 AM AST (3/10) 5:47 PM AST (3/10)
Length of Visible Light 12h 40m
Length of Day
11h 56m
Waning Crescent, 2% of the Moon is Illuminated
Mar 10
Waning Crescent
Mar 11
New
Mar 19
First Quarter
Mar 27
Full
Apr 3
Last Quarter

Hourly Weather History & Observations

Time (AST) Temp. Heat Index Dew Point Humidity Pressure Visibility Wind Dir Wind Speed Gust Speed Precip Events Conditions
12:00 AM 75.2 °F - 64.4 °F 69% 30.04 in 6.2 mi NE 9.2 mph - N/A   Partly Cloudy
1:00 AM 75.2 °F - 62.6 °F 65% 30.04 in 6.2 mi NE 11.5 mph - N/A   Partly Cloudy
2:00 AM 73 °F - 62 °F 60% 30.01 in 10 mi NNE 11.2 mph - -   Scattered Clouds
2:00 AM 75.2 °F - 62.6 °F 65% 30.01 in 6.2 mi NNE 11.5 mph - N/A   Partly Cloudy
3:00 AM 73.4 °F - 60.8 °F 65% 29.98 in 6.2 mi NNE 9.2 mph - N/A   Partly Cloudy
4:00 AM 73.4 °F - 60.8 °F 65% 29.98 in 6.2 mi NNE 9.2 mph - N/A   Partly Cloudy
5:00 AM 72 °F - 60 °F 58% 29.96 in 10 mi NE 6.7 mph - -   Scattered Clouds
5:00 AM 71.6 °F - 60.8 °F 69% 29.95 in 6.2 mi NE 6.9 mph - N/A   Partly Cloudy
6:00 AM 71.6 °F - 60.8 °F 69% 29.98 in 6.2 mi NNE 6.9 mph - N/A   Partly Cloudy
7:00 AM 71.6 °F - 60.8 °F 69% 29.98 in 6.2 mi NNE 6.9 mph - N/A   Partly Cloudy
8:00 AM 75 °F - 64 °F 61% 30.01 in 10 mi NE 8.9 mph - -   Scattered Clouds
8:00 AM 75.2 °F - 64.4 °F 69% 30.01 in 6.2 mi NE 9.2 mph - N/A   Scattered Clouds
9:00 AM 77.0 °F - 64.4 °F 65% 30.01 in 6.2 mi ENE 11.5 mph - N/A   Mostly Cloudy
10:00 AM 77.0 °F - 64.4 °F 65% 30.01 in 6.2 mi ENE 12.7 mph - N/A   Scattered Clouds
11:00 AM 78 °F - 64 °F 54% 30.04 in 5 mi ENE 13.4 mph - -   Partly Cloudy
11:00 AM 78.8 °F - 64.4 °F 61% 30.04 in 5.0 mi ENE 12.7 mph - N/A   Scattered Clouds
12:00 PM 78.8 °F - 64.4 °F 61% 30.04 in 6.2 mi ENE 11.5 mph - N/A   Scattered Clouds
1:00 PM 78.8 °F - 64.4 °F 61% 30.01 in 6.2 mi NE 12.7 mph - N/A   Mostly Cloudy
2:00 PM 80 °F - 64 °F 48% 30.00 in 10 mi NE 11.2 mph - -   Partly Cloudy
2:00 PM 80.6 °F 82.3 °F 64.4 °F 58% 29.98 in 6.2 mi NE 11.5 mph - N/A   Scattered Clouds
3:00 PM 78.8 °F - 62.6 °F 57% 29.98 in 6.2 mi ENE 11.5 mph - N/A   Scattered Clouds
4:00 PM 78.8 °F - 60.8 °F 54% 29.95 in 6.2 mi ENE 13.8 mph - N/A   Scattered Clouds
5:00 PM 77 °F - 62 °F 50% 29.97 in 10 mi ENE 11.2 mph - -   Partly Cloudy
5:00 PM 77.0 °F - 62.6 °F 61% 29.95 in 6.2 mi ENE 11.5 mph - N/A   Scattered Clouds
6:00 PM 77.0 °F - 62.6 °F 61% 29.98 in 6.2 mi NE 12.7 mph - N/A   Scattered Clouds
7:00 PM 73.4 °F - 60.8 °F 65% 29.98 in 6.2 mi NE 10.4 mph - N/A   Partly Cloudy
8:00 PM 73.4 °F - 60.8 °F 65% 29.98 in 6.2 mi NE 9.2 mph - N/A   Partly Cloudy
9:00 PM 73.4 °F - 60.8 °F 65% 30.01 in 6.2 mi NE 9.2 mph - N/A   Partly Cloudy
10:00 PM 71.6 °F - 60.8 °F 69% 30.01 in 6.2 mi NE 9.2 mph - N/A   Partly Cloudy
11:00 PM 71.6 °F - 59.0 °F 64% 30.01 in 6.2 mi NE 9.2 mph - N/A   Partly Cloudy